This demonstration page uses our WeatherBlox Daily Observations layout. Learn more.

Left ArrowRight Arrow

Hourly Observations for November 30, 2022

Temp ( °F °C ) Dew Point ( °F °C ) Humidity (%) Winds ( mph kmh ) Pressure ( in mb ) Visibility ( mi km ) Precip ( " mm )
12:56 am 00:56 Clear 11 -11.7 5 -15 76 76 WNW 8 13 30.26 1025 10 16 0.00 0.00
1:56 am 01:56 Clear 10 -12.2 5 -15 80 80 WNW 9 15 30.27 1025 10 16 0.00 0.00
2:56 am 02:56 Clear 11 -11.7 5 -15 76 76 WNW 10 17 30.29 1026 10 16 0.00 0.00
3:56 am 03:56 Clear 12 -11.1 6 -14.4 76 76 WNW 12 19 30.32 1027 10 16 0.00 0.00
4:56 am 04:56 Clear 10 -12.2 4 -15.6 76 76 WNW 12 19 30.36 1028 10 16 0.00 0.00
5:56 am 05:56 Clear 9 -12.8 3 -16.1 76 76 W 9 15 30.38 1029 10 16 0.00 0.00
6:56 am 06:56 Clear 10 -12.2 4 -15.6 76 76 W 9 15 30.40 1029 10 16 0.00 0.00
7:56 am 07:56 Sunny 10 -12.2 4 -15.6 76 76 W 8 13 30.44 1031 10 16 0.00 0.00
8:56 am 08:56 Sunny 15 -9.4 6 -14.4 67 67 WNW 8 13 30.45 1031 10 16 0.00 0.00
9:56 am 09:56 Sunny 21 -6.1 10 -12.2 62 62 WNW 9 15 30.46 1032 10 16 0.00 0.00
10:56 am 10:56 Sunny 24 -4.4 10 -12.2 54 54 W 10 17 30.48 1032 10 16 0.00 0.00
11:56 am 11:56 Sunny 28 -2.2 12 -11.1 50 50 WSW 5 7 30.46 1031 10 16 0.00 0.00
12:56 pm 12:56 Sunny 32 0 12 -11.1 43 43 VRB 3 6 30.42 1030 10 16 0.00 0.00
1:56 pm 13:56 Sunny 34 1.1 11 -11.7 38 38 Calm 30.41 1030 10 16 0.00 0.00
2:56 pm 14:56 Sunny 30 -1.1 13 -10.6 48 48 VRB 5 7 30.39 1029 10 16 0.00 0.00
3:56 pm 15:56 Sunny 31 -0.6 13 -10.6 47 47 S 7 11 30.36 1028 10 16 0.00 0.00
4:56 pm 16:56 Sunny 28 -2.2 14 -10 55 55 SSE 8 13 30.37 1028 10 16 0.00 0.00
5:56 pm 17:56 Clear 22 -5.6 13 -10.6 68 68 SSE 7 11 30.37 1029 10 16 0.00 0.00
6:56 pm 18:56 Clear 20 -6.7 11 -11.7 67 67 SSE 8 13 30.37 1028 10 16 0.00 0.00
7:56 pm 19:56 Clear 19 -7.2 11 -11.7 70 70 SSE 7 11 30.36 1028 10 16 0.00 0.00
8:56 pm 20:56 Clear 23 -5 12 -11.1 62 62 SSE 14 22 30.33 1027 10 16 0.00 0.00
9:56 pm 21:56 Clear 23 -5 12 -11.1 62 62 SSE 15 24 30.30 1026 10 16 0.00 0.00
10:56 pm 22:56 Clear 23 -5 14 -10 68 68 SSE 17 28 30.26 1025 10 16 0.00 0.00
11:56 pm 23:56 Clear 23 -5 15 -9.4 71 71 S 15 24 30.24 1024 10 16 0.00 0.00

Powered by AerisWeather